Regional Weather Roundup
Issued by NWS Green Bay, WI

Home | Current Version | Previous Version | Graphics & Text | Print | Product List | Glossary Off
Versions: 1 2 3 4 5 6 7 8 9 10 11 12 13 14 15 16 17 18 19 20 21 22 23 24 25 26 27 28 29 30 31 32 33 34 35 36 37 38 39 40 41 42 43 44 45 46 47 48 49 50

000
ASUS43 KGRB 281500
RWRGRB

NORTH-CENTRAL AND NORTHEAST WISCONSIN REGIONAL WEATHER ROUNDUP
NATIONAL WEATHER SERVICE GREEN BAY WI
1000 AM CDT FRI JUL 28 2017

WIZ005-009-010>012-018-019-281600-
NORTH CENTRAL WISCONSIN

CITY           SKY/WX    TMP DP  RH WIND       PRES   REMARKS
IRONWOOD       SUNNY     71  54  54 E5        30.16S
MANITOWISH WTR SUNNY     70  55  57 CALM      30.16S
ARBOR VITAE    NOT AVBL
EAGLE RIVER    NOT AVBL
LAND O LAKES   SUNNY     71  51  49 SE5       30.17S
RHINELANDER    SUNNY     70  56  61 NE6       30.15S
PHILLIPS       SUNNY     69  56  62 CALM      30.15S
ANTIGO         SUNNY     69  56  63 NE10G16   30.13R
TOMAHAWK       NOT AVBL
MERRILL        NOT AVBL
$$

WIZ013-073-281600-
NORTHEAST WISCONSIN

CITY           SKY/WX    TMP DP  RH WIND       PRES   REMARKS
IRON MOUNTAIN  NOT AVBL
MARINETTE      SUNNY     70  60  70 NE8       30.09S
$$

WIZ017-030-035>037-045-281600-
CENTRAL WISCONSIN

CITY           SKY/WX    TMP DP  RH WIND       PRES   REMARKS
MEDFORD        NOT AVBL
WAUSAU         SUNNY     70  55  59 NE7       30.11R
MOSINEE        SUNNY     70  57  64 NE10      30.13R
MARSHFIELD     SUNNY     70  54  56 NE8       30.12R
WISC RAPIDS    SUNNY     73  54  51 NE10      30.12S
STEVENS POINT  NOT AVBL
WAUPACA        NOT AVBL
SHAWANO        NOT AVBL
CLINTONVILLE   SUNNY    N/A N/A N/A NE7       30.09R
WAUTOMA        SUNNY     72  56  57 N9        30.09S
$$

WIZ038-039-048-051-281600-
FOX VALLEY

CITY           SKY/WX    TMP DP  RH WIND       PRES   REMARKS
NWS GREEN BAY  SUNNY     70  63  78 NE8       30.08R
APPLETON       SUNNY     66  54  63 N9        30.07S
OSHKOSH        SUNNY     68  57  68 NE10      30.07S
FOND DU LAC    SUNNY     69  57  65 NE10      30.07S
$$

WIZ022-050-052-281600-
EAST CENTRAL WISCONSIN

CITY           SKY/WX    TMP DP  RH WIND       PRES   REMARKS
EPHRAIM        FAIR      70  60  71 E9        30.08R
WASHINGTON ISL NOT AVBL
STURGEON BAY     N/A     69  61  75 VRB6      30.08S
MANITOWOC      NOT AVBL
SHEBOYGAN      PTSUNNY   69  62  78 N8        30.06R
$$

LMZ563-521-522-541>543-281600-
LAKESHORE

STATION/POSITION TIME  TEMP    WIND        PRES    VSBY  WAVE
                       AIR SEA DIR/SP/G                  HT/PER
                 (UTC) (F)     (DEG/KT/KT) (MB)    (MI)  (FT/S)
SHEBOYGAN LKSHOR 1400   65      10/ 15/ 16 1017.1F
KEWAUNEE LKSHORE 1430   68      30/  5/  9 1017.4R
NORTHPORT PIER   1440   68      60/  9/ 12 1018.3S
N MID LAKE BUOY  1350   66 66   50/ 12/ 14 1018.8R         1/ 3
S GREEN BAY BUOY 1430   67 71   40/ 12/ 16 1018.1R
SISTER BAY LKSHO 1417   77     110/  3/  6   N/A
CHAMBERS ISLAND  1440   66      20/ 12/ 14 1017.9S
MENOMINEE LKSHOR 1430   66      30/ 14/ 16 1018.2S
$$



USA.gov is the U.S. government's official web portal to all federal, state and local government web resources and services.